QUICK3 (64558 NORAD) Tracking and Keplerian Element Data

This shows tracking and keplerian element data for the satellite.

Feedback or suggestion? Click here.




ElementValue
Catalog64558
NameQUICK3
Epoch Orbit2752
Epoch Day353.82057873
Epoch Year2025
RAAN105.9051
Inclination97.4617
Eccentricity0.0006716
Argument of Perigee75.0632
Mean Anonmoly285.1348
Mean Motion15.21726003
Decay Rate9.443E-05
L11 64558U 25135AG 25353.82057873 .00009443 00000+0 41955-3 0 9998
L22 64558 97.4617 105.9051 0006716 75.0632 285.1348 15.21726003 27522



Live tracking and technical data element details for QUICK3 (NORAD 64558). QUICK3 can be tracked NOW for your location showing map with azimuth and elevation plus other details from your city location.







IsCatalogInMostPopularTable: catalog: 64558, numindb: 5
Update: records affected: 1



GetName: 64558 QUICK3

Hit Count: updated at: Tue, 21 Apr 2026 19:34:58 GMT